• In Hungary
  • List of Countries
  • For 7 days
  • Water Temperature
  • Satellite Maps
  • Weather Map
  • News
  • Weather Widgets
  • user-avatar
    Login

    Hourly Weather Cheremis

    Today, 23 October, Tuesday

    Time Temperature Precipitation Wind Pressure Humidity
    00:00 +6°C° 0.6 mm 4 mps 737 mmHg 88%
    01:00 +6°C° 0.6 mm 4 mps 737 mmHg 88%
    02:00 +6°C° 0.6 mm 4 mps 736 mmHg 89%
    03:00 +6°C° 0.4 mm 4 mps 736 mmHg 88%
    04:00 +6°C° 0.4 mm 4 mps 735 mmHg 88%
    05:00 +6°C° 0.4 mm 4 mps 735 mmHg 87%
    06:00 +5°C° 0.1 mm 4 mps 735 mmHg 85%
    07:00 +5°C° 0.1 mm 4 mps 735 mmHg 83%
    08:00 +5°C° 0.1 mm 4 mps 735 mmHg 80%
    09:00 +5°C° 0 mm 3 mps 735 mmHg 77%
    10:00 +5°C° 0 mm 3 mps 735 mmHg 74%
    11:00 +5°C° 0 mm 3 mps 735 mmHg 71%
    12:00 +5°C° 0 mm 3 mps 734 mmHg 70%
    13:00 +7°C° 0 mm 2 mps 734 mmHg 69%
    14:00 +7°C° 0 mm 2 mps 733 mmHg 68%
    15:00 +6°C° 0 mm 2 mps 733 mmHg 73%
    16:00 +5°C° 0 mm 2 mps 732 mmHg 79%
    17:00 +5°C° 0 mm 1 mps 732 mmHg 84%
    18:00 +4°C° 0 mm 2 mps 731 mmHg 84%
    19:00 +4°C° 0 mm 2 mps 731 mmHg 85%
    20:00 +4°C° 0 mm 2 mps 730 mmHg 86%
    21:00 +3°C° 0 mm 2 mps 729 mmHg 87%
    22:00 +3°C° 0 mm 2 mps 729 mmHg 88%
    23:00 +3°C° 0 mm 2 mps 728 mmHg 88%

    Tomorrow, 24 October, Wednesday

    Time Temperature Precipitation Wind Pressure Humidity
    00:00 +3°C° 0 mm 2 mps 727 mmHg 89%
    01:00 +3°C° 0 mm 2 mps 727 mmHg 90%
    02:00 +2°C° 0 mm 2 mps 726 mmHg 91%
    03:00 +2°C° 0 mm 2 mps 725 mmHg 91%
    04:00 +2°C° 0 mm 2 mps 725 mmHg 92%
    05:00 +2°C° 0 mm 2 mps 724 mmHg 93%
    06:00 +1°C° 0 mm 3 mps 724 mmHg 91%
    07:00 +1°C° 0 mm 3 mps 724 mmHg 90%
    08:00 +1°C° 0 mm 3 mps 723 mmHg 88%
    09:00 +2°C° 0 mm 3 mps 723 mmHg 84%
    10:00 +3°C° 0 mm 3 mps 723 mmHg 80%
    11:00 +4°C° 0 mm 3 mps 723 mmHg 75%
    12:00 +4°C° 0.1 mm 3 mps 723 mmHg 75%
    13:00 +4°C° 0.1 mm 3 mps 723 mmHg 74%
    14:00 +4°C° 0.1 mm 3 mps 723 mmHg 73%
    15:00 +5°C° 0.1 mm 2 mps 724 mmHg 77%
    16:00 +4°C° 0.1 mm 2 mps 724 mmHg 81%
    17:00 +4°C° 0.1 mm 2 mps 724 mmHg 85%
    18:00 +4°C° 0.1 mm 2 mps 724 mmHg 86%
    19:00 +3°C° 0.1 mm 2 mps 724 mmHg 88%
    20:00 +3°C° 0.1 mm 2 mps 724 mmHg 90%
    21:00 +2°C° 0 mm 3 mps 724 mmHg 91%
    22:00 +1°C° 0 mm 3 mps 724 mmHg 92%
    23:00 +1°C° 0 mm 3 mps 724 mmHg 93%

    Day after tomorrow, 25 October, Thursday

    Time Temperature Precipitation Wind Pressure Humidity
    00:00 +1°C° 0.1 mm 3 mps 724 mmHg 93%
    01:00 +1°C° 0.1 mm 3 mps 724 mmHg 92%
    02:00 +1°C° 0.1 mm 3 mps 724 mmHg 92%
    03:00 +1°C° 0.1 mm 3 mps 724 mmHg 91%
    04:00 0°C° 0.1 mm 4 mps 724 mmHg 91%
    05:00 0°C° 0.1 mm 4 mps 724 mmHg 90%
    06:00 0°C° 0 mm 4 mps 724 mmHg 89%
    07:00 0°C° 0 mm 4 mps 724 mmHg 88%
    08:00 0°C° 0 mm 4 mps 723 mmHg 87%
    09:00 0°C° 0 mm 5 mps 723 mmHg 85%
    10:00 +1°C° 0 mm 5 mps 723 mmHg 84%
    11:00 +1°C° 0 mm 5 mps 722 mmHg 82%
    12:00 +1°C° 0.1 mm 6 mps 722 mmHg 82%
    13:00 +1°C° 0.1 mm 6 mps 721 mmHg 81%
    14:00 +1°C° 0.1 mm 6 mps 720 mmHg 81%
    15:00 0°C° 0.5 mm 7 mps 720 mmHg 80%
    16:00 0°C° 0.5 mm 7 mps 720 mmHg 80%
    17:00 0°C° 0.5 mm 7 mps 719 mmHg 80%
    18:00 -1°C° 0.6 mm 7 mps 719 mmHg 80%
    19:00 -1°C° 0.6 mm 7 mps 719 mmHg 80%
    20:00 -1°C° 0.6 mm 7 mps 719 mmHg 80%
    21:00 -1°C° 0.2 mm 7 mps 719 mmHg 79%
    22:00 -1°C° 0.2 mm 7 mps 719 mmHg 78%
    23:00 -1°C° 0.2 mm 7 mps 720 mmHg 78%

    26 October, Friday

    Time Temperature Precipitation Wind Pressure Humidity
    00:00 -1°C° 0.1 mm 7 mps 721 mmHg 77%
    01:00 -2°C° 0.1 mm 7 mps 721 mmHg 77%
    02:00 -2°C° 0.1 mm 6 mps 722 mmHg 77%
    03:00 -2°C° 0 mm 6 mps 723 mmHg 78%
    04:00 -2°C° 0 mm 6 mps 723 mmHg 79%
    05:00 -2°C° 0 mm 5 mps 724 mmHg 80%
    06:00 -2°C° 0 mm 5 mps 725 mmHg 80%
    07:00 -2°C° 0 mm 5 mps 725 mmHg 81%
    08:00 -2°C° 0 mm 5 mps 726 mmHg 81%
    09:00 -1°C° 0 mm 5 mps 726 mmHg 79%
    10:00 0°C° 0 mm 5 mps 727 mmHg 76%
    11:00 +1°C° 0 mm 5 mps 728 mmHg 74%
    12:00 +1°C° 0 mm 5 mps 728 mmHg 74%
    13:00 +1°C° 0 mm 5 mps 729 mmHg 74%
    14:00 +1°C° 0 mm 5 mps 729 mmHg 74%
    15:00 +1°C° 0 mm 4 mps 729 mmHg 76%
    16:00 0°C° 0 mm 4 mps 730 mmHg 78%
    17:00 +1°C° 0 mm 3 mps 730 mmHg 80%
    18:00 +1°C° 0 mm 3 mps 731 mmHg 82%
    19:00 0°C° 0 mm 3 mps 731 mmHg 85%
    20:00 0°C° 0 mm 3 mps 732 mmHg 88%
    21:00 -1°C° 0 mm 3 mps 732 mmHg 89%
    22:00 -1°C° 0 mm 3 mps 732 mmHg 91%
    23:00 -1°C° 0 mm 3 mps 733 mmHg 93%

    27 October, Saturday

    Time Temperature Precipitation Wind Pressure Humidity
    00:00 -1°C° 0 mm 3 mps 733 mmHg 93%
    01:00 -1°C° 0 mm 3 mps 734 mmHg 93%
    02:00 -2°C° 0 mm 3 mps 734 mmHg 93%
    03:00 -2°C° 0 mm 3 mps 735 mmHg 92%
    04:00 -2°C° 0 mm 3 mps 735 mmHg 92%
    05:00 -2°C° 0 mm 3 mps 736 mmHg 91%
    06:00 -2°C° 0 mm 3 mps 736 mmHg 91%
    07:00 -1°C° 0 mm 3 mps 737 mmHg 90%
    08:00 -1°C° 0 mm 2 mps 737 mmHg 89%
    09:00 +1°C° 0 mm 2 mps 738 mmHg 85%
    10:00 +1°C° 0 mm 3 mps 738 mmHg 81%
    11:00 +1°C° 0 mm 3 mps 738 mmHg 77%
    12:00 +2°C° 0 mm 3 mps 738 mmHg 77%
    13:00 +2°C° 0 mm 3 mps 738 mmHg 77%
    14:00 +2°C° 0 mm 3 mps 737 mmHg 77%
    15:00 +2°C° 0.4 mm 3 mps 737 mmHg 80%
    16:00 0°C° 0.4 mm 4 mps 737 mmHg 83%
    17:00 0°C° 0.4 mm 4 mps 736 mmHg 86%
    18:00 +1°C° 1.2 mm 4 mps 735 mmHg 87%
    19:00 +1°C° 1.2 mm 5 mps 735 mmHg 88%
    20:00 +2°C° 1.2 mm 5 mps 734 mmHg 89%
    21:00 +2°C° 0.4 mm 5 mps 734 mmHg 89%
    22:00 +3°C° 0.4 mm 5 mps 734 mmHg 89%
    23:00 +3°C° 0.4 mm 5 mps 733 mmHg 89%

    28 October, Sunday

    Time Temperature Precipitation Wind Pressure Humidity
    00:00 +4°C° 0.1 mm 4 mps 733 mmHg 90%
    01:00 +5°C° 0.1 mm 4 mps 734 mmHg 91%
    02:00 +5°C° 0.1 mm 4 mps 734 mmHg 92%
    03:00 +4°C° 0 mm 3 mps 734 mmHg 93%
    04:00 +4°C° 0 mm 3 mps 734 mmHg 94%
    05:00 +4°C° 0 mm 3 mps 735 mmHg 95%
    06:00 +5°C° 0 mm 2 mps 735 mmHg 95%
    07:00 +5°C° 0 mm 2 mps 735 mmHg 96%
    08:00 +4°C° 0 mm 2 mps 736 mmHg 96%
    09:00 +5°C° 0 mm 2 mps 736 mmHg 93%
    10:00 +7°C° 0 mm 1 mps 736 mmHg 90%
    11:00 +7°C° 0 mm 1 mps 737 mmHg 87%
    12:00 +7°C° 0 mm 1 mps 737 mmHg 87%
    13:00 +7°C° 0 mm 1 mps 737 mmHg 88%
    14:00 +6°C° 0 mm 0 mps 737 mmHg 89%
    15:00 +7°C° 0.2 mm 1 mps 736 mmHg 91%
    16:00 +6°C° 0.2 mm 1 mps 736 mmHg 93%
    17:00 +5°C° 0.2 mm 2 mps 736 mmHg 95%
    18:00 +5°C° 0.9 mm 2 mps 735 mmHg 95%
    19:00 +5°C° 0.9 mm 2 mps 735 mmHg 95%
    20:00 +3°C° 0.9 mm 3 mps 734 mmHg 95%
    21:00 +4°C° 0.2 mm 3 mps 734 mmHg 94%
    22:00 +4°C° 0.2 mm 3 mps 733 mmHg 94%
    23:00 +4°C° 0.2 mm 4 mps 732 mmHg 93%

    29 October, Monday

    Time Temperature Precipitation Wind Pressure Humidity
    00:00 +4°C° 0.7 mm 4 mps 732 mmHg 93%
    01:00 +5°C° 0.7 mm 4 mps 731 mmHg 93%
    02:00 +5°C° 0.7 mm 4 mps 730 mmHg 93%
    03:00 +5°C° 0.2 mm 5 mps 731 mmHg 90%
    04:00 +4°C° 0.2 mm 6 mps 731 mmHg 86%
    05:00 +3°C° 0.2 mm 7 mps 732 mmHg 83%
    06:00 +3°C° 0 mm 6 mps 733 mmHg 83%
    07:00 +2°C° 0 mm 6 mps 735 mmHg 83%
    08:00 +1°C° 0 mm 5 mps 736 mmHg 83%
    09:00 +1°C° 0 mm 5 mps 738 mmHg 82%
    10:00 +1°C° 0 mm 5 mps 739 mmHg 82%
    11:00 +3°C° 0 mm 4 mps 741 mmHg 81%
    12:00 +3°C° 0 mm 4 mps 742 mmHg 81%
    13:00 +3°C° 0 mm 3 mps 742 mmHg 81%
    14:00 +4°C° 0 mm 2 mps 743 mmHg 81%
    15:00 +4°C° 0.1 mm 2 mps 744 mmHg 84%
    16:00 +4°C° 0.1 mm 2 mps 745 mmHg 86%
    17:00 +4°C° 0.1 mm 1 mps 745 mmHg 88%
    18:00 +4°C° 0 mm 1 mps 746 mmHg 89%
    19:00 +4°C° 0 mm 1 mps 747 mmHg 89%
    20:00 +3°C° 0 mm 2 mps 747 mmHg 90%
    21:00 +3°C° 0 mm 1 mps 748 mmHg 91%
    22:00 +3°C° 0 mm 1 mps 748 mmHg 92%
    23:00 +2°C° 0 mm 1 mps 749 mmHg 93%
    Show more